Guam Agana, GU

11:08 AM ChST on December 07, 2019 (GMT +1000)
Guam International

Weather History for PGUM - November, 2019

Change the Weather History Date:

Tuesday, November 19, 2019

  Actual Average Record
Temperature  
Mean Temperature 84 °F -  
Max Temperature 88 °F 85 °F 91 °F (2016)
Min Temperature 79 °F 75 °F 73 °F (2007)
Cooling Degree Days 18    
Growing Degree Days 34 (Base 50)    
Moisture  
Dew Point 75 °F    
Average Humidity 77    
Maximum Humidity 90    
Minimum Humidity 65    
Precipitation  
Precipitation 0.10 in - - ()
Sea Level Pressure  
Sea Level Pressure 29.84 in    
Wind  
Wind Speed 12 mph ()    
Max Wind Speed 18 mph    
Max Gust Speed 28 mph    
Visibility 9.3 miles    
Events Rain    
Averages and records for this station are not official NWS values.
T = Trace of Precipitation, MM = Missing Value Source: Averaged Metar Reports

Daily Weather History Graph

Daily Weather History Graph

Search for Another Location

Airport or City:

Astronomy

Nov. 19, 2019 Rise Set
Actual Time 6:21 AM ChST 5:50 PM ChST
Civil Twilight 5:59 AM ChST 6:12 PM ChST
Nautical Twilight 5:33 AM ChST 6:38 PM ChST
Astronomical Twilight 5:07 AM ChST 7:04 PM ChST
Moon 11:56 PM ChST (11/19) 12:05 PM ChST (11/19)
Length of Visible Light 12h 13m
Length of Day
11h 28m
Waning Gibbous, 59% of the Moon is Illuminated
Nov 19
Waning Gibbous
Nov 20
Last Quarter
Nov 27
New
Dec 4
First Quarter
Dec 12
Full

Hourly Weather History & Observations

Time (ChST) Temp. Heat Index Dew Point Humidity Pressure Visibility Wind Dir Wind Speed Gust Speed Precip Events Conditions
12:34 AM 80.1 °F 85.1 °F 75.0 °F 85% 29.87 in 5.0 mi East 15.0 mph 26.5 mph 0.00 in Rain Rain
12:41 AM 79.0 °F - 75.0 °F 88% 29.86 in 7.0 mi East 10.4 mph 21.9 mph 0.00 in Rain Light Rain
12:54 AM 79.0 °F - 75.0 °F 88% 29.84 in 10.0 mi East 9.2 mph - 0.00 in   Mostly Cloudy
1:54 AM 81.0 °F 86.7 °F 75.0 °F 82% 29.83 in 10.0 mi East 10.4 mph - 0.00 in   Scattered Clouds
2:54 AM 80.1 °F 85.8 °F 77.0 °F 90% 29.82 in 10.0 mi East 10.4 mph - 0.01 in   Mostly Cloudy
3:37 AM 81.0 °F 87.3 °F 75.9 °F 85% 29.84 in 10.0 mi East 12.7 mph - N/A   Mostly Cloudy
3:54 AM 80.1 °F 85.1 °F 75.0 °F 85% 29.82 in 10.0 mi East 10.4 mph - N/A   Scattered Clouds
4:14 AM 80.1 °F 85.4 °F 75.9 °F 87% 29.85 in 2.5 mi East 18.4 mph 25.3 mph 0.02 in Rain Heavy Rain
4:27 AM 79.0 °F - 75.0 °F 88% 29.85 in 3.0 mi East 18.4 mph 26.5 mph 0.08 in Rain Rain
4:54 AM 80.1 °F 85.4 °F 75.9 °F 87% 29.83 in 10.0 mi East 13.8 mph - 0.09 in   Mostly Cloudy
5:54 AM 80.1 °F 84.5 °F 73.9 °F 81% 29.84 in 10.0 mi East 12.7 mph - N/A   Clear
6:54 AM 81.0 °F 86.2 °F 73.9 °F 79% 29.86 in 10.0 mi East 15.0 mph 21.9 mph N/A   Scattered Clouds
7:54 AM 82.9 °F 90.2 °F 75.0 °F 77% 29.88 in 10.0 mi East 13.8 mph 24.2 mph N/A   Scattered Clouds
8:54 AM 84.0 °F 91.9 °F 75.0 °F 74% 29.89 in 10.0 mi East 16.1 mph 25.3 mph N/A   Clear
9:54 AM 84.9 °F 92.1 °F 73.9 °F 69% 29.89 in 10.0 mi East 18.4 mph - N/A   Scattered Clouds
10:54 AM 86.0 °F 95.1 °F 75.0 °F 70% 29.86 in 10.0 mi East 16.1 mph 27.6 mph N/A   Partly Cloudy
11:38 AM 87.1 °F 96.3 °F 75.0 °F 67% 29.87 in 10.0 mi East 13.8 mph 24.2 mph N/A   Mostly Cloudy
11:54 AM 87.1 °F 96.3 °F 75.0 °F 67% 29.84 in 10.0 mi ESE 15.0 mph 24.2 mph N/A   Mostly Cloudy
12:40 PM 87.1 °F 96.3 °F 75.0 °F 67% 29.85 in 10.0 mi East 18.4 mph 23.0 mph N/A   Scattered Clouds
12:54 PM 87.1 °F 96.3 °F 75.0 °F 67% 29.82 in 10.0 mi East 18.4 mph - N/A   Partly Cloudy
1:28 PM 87.1 °F 96.3 °F 75.0 °F 67% 29.83 in 10.0 mi East 13.8 mph 23.0 mph N/A   Mostly Cloudy
1:36 PM 88.0 °F 97.5 °F 75.0 °F 65% 29.83 in 10.0 mi East 16.1 mph 23.0 mph N/A   Scattered Clouds
1:54 PM 86.0 °F 95.1 °F 75.0 °F 70% 29.80 in 10.0 mi East 18.4 mph 25.3 mph N/A   Partly Cloudy
2:54 PM 87.1 °F 96.3 °F 75.0 °F 67% 29.79 in 10.0 mi East 17.3 mph 24.2 mph N/A   Partly Cloudy
3:54 PM 86.0 °F 93.8 °F 73.9 °F 67% 29.79 in 10.0 mi ENE 18.4 mph - N/A   Partly Cloudy
4:54 PM 84.9 °F 92.1 °F 73.9 °F 69% 29.79 in 10.0 mi ENE 15.0 mph - N/A   Clear
5:54 PM 82.9 °F 89.4 °F 73.9 °F 74% 29.80 in 10.0 mi ENE 12.7 mph - N/A   Partly Cloudy
6:54 PM 82.9 °F 89.4 °F 73.9 °F 74% 29.81 in 10.0 mi ENE 12.7 mph - N/A   Clear
7:54 PM 82.9 °F 89.4 °F 73.9 °F 74% 29.84 in 10.0 mi ENE 12.7 mph - N/A   Partly Cloudy
8:54 PM 82.0 °F 87.4 °F 73.0 °F 74% 29.86 in 10.0 mi East 12.7 mph - N/A   Scattered Clouds
9:54 PM 81.0 °F 85.2 °F 72.0 °F 74% 29.86 in 10.0 mi East 8.1 mph - N/A   Clear
10:54 PM 81.0 °F 85.8 °F 73.0 °F 77% 29.85 in 10.0 mi East 6.9 mph - N/A   Scattered Clouds
11:43 PM 79.0 °F - 75.0 °F 88% 29.87 in 10.0 mi ESE 4.6 mph - 0.00 in   Overcast
11:54 PM 80.1 °F 85.1 °F 75.0 °F 85% 29.84 in 10.0 mi ENE 8.1 mph - 0.00 in   Scattered Clouds